Location: Newark
(34.0131°N, 4.3314°W)
Time: 07:44:26
(UTC+00:00)

Explorer 7 - Pass Details

Date: 16 October 2019
Orbit: 485 x 680 km, 50.3° (Epoch: 20 November)

Event Time Altitude Azimuth Distance (km) Brightness Sun altitude
Rises 19:41:47 0° 310° (NW) 2,697 11.2 -25.5°
Reaches altitude 10° 19:43:58 10° 309° (NW) 1,833 10.2 -25.9°
Enters shadow 19:47:15 54° 296° (WNW) 699 7.5 -26.6°
Maximum altitude 19:48:09 78° 222° (SW) 595 - -26.8°
Drops below altitude 10° 19:52:36 10° 137° (SE) 1,950 - -27.7°
Sets 19:54:58 0° 136° (SE) 2,885 - -28.2°
